Flag for Norway Weather past 2 weeks in Drammen, Norway

Now
54 °F

Overcast.


Feels Like: 48 °F
Forecast: 47 / 55 °F
Wind: 24 mph from North

Location: Oslo / Fornebu

Current Time: Sep 4, 2015 at 2:11:22 AM

Latest Report: Sep 4, 2015 at 1:20 AM


Visibility: N/A

Pressure: 29.92 "Hg

Humidity: 82%

Dew point: 48 °F

Location of DrammenLocation

Historic Weather in Drammen — Graph

°F

Drammen temperature yesterday

Maximum temperature yesterday: 55 °F (at 2:20 AM)
Minimum temperature yesterday: 54 °F (at 12:20 AM)
Average temperature yesterday: 54 °F

Past Weeks' High & Low Weather Summary

 TemperatureHumidityPressure
High70 °F (Aug 24, 5:20 AM)100% (Aug 21, 4:20 PM)30.15 "Hg (Aug 21, 4:20 PM)
Low54 °F (Sep 1, 7:50 AM)46% (Aug 23, 6:20 PM)29.33 "Hg (Aug 26, 11:50 PM)
Average58 °F86%29.84 "Hg
* Reported Aug 20 12:20 AM — Sep 4 12:50 AM, Drammen, Weather by CustomWeather, © 2015

Note: Actual official high and low records may vary slightly from our data, if they occured in-between our weather recording intervals... More about our weather records

Advertising

Drammen weather history for previous 24 hours

 ConditionsComfort  
Time TempWeatherWind HumidityBarometerVisibility
12:50 AM
Fri, Sep 4
54 °FOvercast.25 mph82%29.92 "HgN/A
12:20 AM54 °FPassing clouds.25 mph82%29.92 "HgN/A
11:50 PM
Thu, Sep 3
54 °FPassing clouds.24 mph82%29.92 "HgN/A
11:20 PM54 °FPassing clouds.25 mph88%29.92 "HgN/A
10:50 PM54 °FOvercast.26 mph88%29.92 "HgN/A
10:20 PM54 °FPassing clouds.29 mph88%29.92 "HgN/A
9:50 PM54 °FPassing clouds.29 mph88%29.89 "HgN/A
9:20 PM55 °FPassing clouds.30 mph88%29.89 "HgN/A
8:50 PM54 °FPartly sunny.31 mph94%29.89 "HgN/A
8:20 PM54 °FBroken clouds.32 mph94%29.89 "HgN/A
7:50 PM54 °FPartly sunny.32 mph94%29.89 "HgN/A
7:20 PM54 °FPartly sunny.33 mph94%29.86 "HgN/A
6:50 PM54 °FPartly sunny.33 mph94%29.86 "HgN/A
6:20 PM54 °FPartly sunny.33 mph94%29.86 "HgN/A
5:50 PM54 °FPartly sunny.33 mph94%29.86 "HgN/A
5:20 PM54 °FPartly sunny.31 mph94%29.86 "HgN/A
4:50 PM54 °FPartly sunny.31 mph94%29.86 "HgN/A
4:20 PM54 °FPartly sunny.32 mph94%29.86 "HgN/A
3:50 PM54 °FScattered clouds.33 mph94%29.86 "HgN/A
3:20 PM54 °FBroken clouds.32 mph94%29.86 "HgN/A
2:50 PM54 °FScattered clouds.31 mph94%29.86 "HgN/A
2:20 PM54 °FPassing clouds.32 mph94%29.86 "HgN/A
1:50 PM55 °FPassing clouds.31 mph88%29.86 "HgN/A
12:50 PM55 °FPartly sunny.35 mph88%29.83 "HgN/A
12:20 PM55 °FPartly sunny.36 mph88%29.83 "HgN/A
11:50 AM55 °FPartly sunny.36 mph88%29.83 "HgN/A
11:20 AM55 °FPassing clouds.38 mph88%29.83 "HgN/A
10:50 AM55 °FScattered clouds.38 mph88%29.83 "HgN/A
10:20 AM55 °FScattered clouds.39 mph88%29.83 "HgN/A
9:50 AM55 °FPartly sunny.39 mph88%29.80 "HgN/A
9:20 AM55 °FPartly sunny.39 mph88%29.80 "HgN/A
8:50 AM55 °FCool.N/A88%29.80 "HgN/A
8:20 AM55 °FCool.N/A88%29.77 "HgN/A
7:50 AM55 °FPartly sunny.43 mph88%29.77 "HgN/A
7:20 AM55 °FPartly sunny.43 mph88%29.77 "HgN/A
6:50 AM55 °FPassing clouds.43 mph88%29.77 "HgN/A
6:20 AM55 °FPassing clouds.41 mph88%29.77 "HgN/A
5:50 AM55 °FPassing clouds.44 mph88%29.77 "HgN/A
5:20 AM54 °FPassing clouds.N/A94%29.77 "HgN/A
4:50 AM54 °FPassing clouds.45 mph94%29.77 "HgN/A
4:20 AM54 °FPassing clouds.45 mph94%29.77 "HgN/A
3:50 AM54 °FPassing clouds.45 mph94%29.77 "HgN/A
3:20 AM54 °FPassing clouds.47 mph94%29.77 "HgN/A
2:50 AM54 °FPartly cloudy.46 mph94%29.77 "HgN/A
2:20 AM55 °FPassing clouds.47 mph88%29.77 "HgN/A
Weather by CustomWeather, © 2015

See weather overviewHow to use our weather pages